Powrót do katalogu

OPS 4682 DEB

AktywnyPO
NORAD 38408·DEBRIS·🇺🇸 United States

Wystrzelony Apr 3, 1965 z Vandenberg Space Force Base

Loading…

Następne Przeloty (najbliższe 24 godziny)

TLE

ŚwieżeSource: Space-Track

Epoka: Sep 14, 2026, 13:52 UTC

1 38408U 65027DM  26257.57789927 -.00000028  00000-0 -11164-3 0  9997
2 38408  90.2946  17.8188 0041596 288.9557  70.7061 13.02208934616845

Śledź OPS 4682 DEB w czasie rzeczywistym z AllMySat

Download on the App Store